Flag for Norway Weather past 2 weeks in Egersund, Norway

Now
58 °F

Cool.


Feels Like: 58 °F
Forecast: 56 / 67 °F
Wind: 2 mph from Northeast

Location: Obrestad

Current Time: Sep 16, 2014 at 7:44:12 AM

Latest Report: Sep 16, 2014 at 7:00 AM


Visibility: N/A

Pressure: 30.25 "Hg

Humidity: 64%

Dew point: 46 °F

Location of EgersundLocation

Historic Weather in Egersund — Graph

°F

Egersund temperature yesterday

Maximum temperature yesterday: 67 °F (at 1:00 PM)
Minimum temperature yesterday: 48 °F (at 5:00 AM)
Average temperature yesterday: 59 °F

Past Weeks' High & Low Weather Summary

 TemperatureHumidityPressure
High67 °F (Sep 15, 1:00 PM)97% (Sep 6, 6:00 PM)30.46 "Hg (Sep 6, 6:00 PM)
Low48 °F (Sep 8, 5:00 AM)50% (Sep 16, 1:00 AM)29.81 "Hg (Sep 7, 2:00 AM)
Average58 °F85%30.17 "Hg
* Reported Sep 1 6:00 AM — Sep 16 6:00 AM, Egersund, Weather by CustomWeather, © 2014

Note: Actual official high and low records may vary slightly from our data, if they occured in-between our weather recording intervals... More about our weather records

Advertising

Egersund weather history for previous 24 hours

 ConditionsComfort  
Time TempWeatherWind HumidityBarometerVisibility
6:00 AM
Sep 16
59 °FCool.2 mph61%30.25 "HgN/A
5:00 AM58 °FCool.2 mph66%30.26 "HgN/A
4:00 AM57 °FCool.2 mph68%30.27 "HgN/A
3:00 AM58 °FCool.3 mph60%30.27 "HgN/A
2:00 AM58 °FRefreshingly cool.2 mph59%30.27 "HgN/A
1:00 AM60 °FRefreshingly cool.1 mph50%30.28 "HgN/A
12:00 AM59 °FRefreshingly cool.1 mph53%30.28 "HgN/A
11:00 PM
Sep 15
59 °FRefreshingly cool.1 mph54%30.29 "HgN/A
10:00 PM60 °FRefreshingly cool.1 mph57%30.29 "HgN/A
9:00 PM59 °FCool.2 mph69%30.28 "HgN/A
8:00 PM61 °FCool.2 mph78%30.28 "HgN/A
7:00 PM62 °FMild.2 mph83%30.28 "HgN/A
6:00 PM65 °FMild.2 mph76%30.28 "HgN/A
5:00 PM64 °FMild.2 mph75%30.29 "HgN/A
4:00 PM64 °FMild.2 mph75%30.30 "HgN/A
3:00 PM65 °FMild.2 mph70%30.31 "HgN/A
2:00 PM66 °FMild.2 mph57%30.32 "HgN/A
1:00 PM67 °FMild.2 mph55%30.33 "HgN/A
12:00 PM66 °FMild.2 mph56%30.34 "HgN/A
11:00 AM63 °FMild.2 mph63%30.35 "HgN/A
10:00 AM60 °FCool.2 mph67%30.35 "HgN/A
9:00 AM57 °FCool.3 mph69%30.35 "HgN/A
8:00 AM55 °FCool.5 mph71%30.35 "HgN/A
7:00 AM49 °FCool.3 mph85%30.35 "HgN/A
Weather by CustomWeather, © 2014

See weather overviewHow to use our weather pages